Location: Unspecified
(0.0000°N, 0.0000°E)
Time: 13:24:19
(UTC+00:00)

AO-40 - Pass Details

Date: 29 January 2022
Orbit: 908 x 58912 km, 6.9° (Epoch: 25 May)

Event Time Altitude Azimuth Distance (km) Brightness Sun altitude
Rises 15:31:51 0° 87° (E) 64,940 ? 38.0°
Reaches altitude 10° 16:24:04 10° 87° (E) 63,215 ? 25.9°
Maximum altitude 22:47:22 71° 95° (E) 26,723 ? -62.4°
Drops below altitude 10° 00:22:05 10° 99° (E) 8,950 ? -72.1°
Sets 00:25:47 0° 98° (E) 8,839 ? -72.0°
